TimeCDT,TemperatureF,Dew PointF,Humidity,Sea Level PressureIn,VisibilityMPH,Wind Direction,Wind SpeedMPH,Gust SpeedMPH,PrecipitationIn,Events,Conditions,WindDirDegrees,DateUTC
12:52 AM,50.0,28.9,44,30.00,-9999.0,WSW,12.7,-,N/A,,Unknown,250,2013-04-04 05:52:00
1:16 AM,44.6,30.2,57,30.02,-9999.0,NE,19.6,27.6,N/A,,Unknown,40,2013-04-04 06:16:00
1:52 AM,42.1,28.9,60,30.04,-9999.0,North,15.0,-,N/A,,Unknown,10,2013-04-04 06:52:00
2:52 AM,41.0,30.0,65,30.06,-9999.0,NNE,12.7,-,N/A,,Unknown,20,2013-04-04 07:52:00
3:52 AM,39.9,30.0,68,30.10,-9999.0,NNW,10.4,-,N/A,,Unknown,330,2013-04-04 08:52:00
4:52 AM,37.9,28.0,68,30.12,-9999.0,North,13.8,-,N/A,,Unknown,350,2013-04-04 09:52:00
5:52 AM,36.0,27.0,70,30.14,-9999.0,NW,6.9,-,N/A,,Unknown,320,2013-04-04 10:52:00
6:52 AM,34.0,26.1,73,30.15,-9999.0,North,11.5,-,N/A,,Unknown,350,2013-04-04 11:52:00
7:52 AM,34.0,25.0,70,30.19,-9999.0,NNW,10.4,-,N/A,,Unknown,340,2013-04-04 12:52:00
8:52 AM,36.0,25.0,64,30.21,-9999.0,North,12.7,-,N/A,,Unknown,360,2013-04-04 13:52:00
9:52 AM,39.0,27.0,62,30.22,-9999.0,North,13.8,-,N/A,,Unknown,350,2013-04-04 14:52:00
10:52 AM,43.0,27.0,53,30.22,-9999.0,North,9.2,-,N/A,,Unknown,360,2013-04-04 15:52:00
11:52 AM,46.9,26.1,44,30.21,-9999.0,NNE,6.9,-,N/A,,Unknown,20,2013-04-04 16:52:00
12:52 PM,48.9,23.0,36,30.20,-9999.0,North,10.4,-,N/A,,Unknown,350,2013-04-04 17:52:00
1:52 PM,48.0,21.0,34,30.19,-9999.0,North,6.9,-,N/A,,Unknown,10,2013-04-04 18:52:00
2:52 PM,55.9,18.0,23,30.17,-9999.0,North,9.2,16.1,N/A,,Unknown,10,2013-04-04 19:52:00
3:52 PM,55.0,19.9,25,30.17,-9999.0,NE,15.0,-,N/A,,Unknown,40,2013-04-04 20:52:00
4:52 PM,51.1,19.9,29,30.17,-9999.0,East,12.7,-,N/A,,Unknown,80,2013-04-04 21:52:00
5:52 PM,48.9,16.0,27,30.17,-9999.0,ENE,10.4,-,N/A,,Unknown,70,2013-04-04 22:52:00
6:52 PM,48.9,19.0,31,30.17,-9999.0,ENE,9.2,-,N/A,,Unknown,70,2013-04-04 23:52:00
7:52 PM,46.0,21.0,37,30.19,-9999.0,East,9.2,-,N/A,,Unknown,80,2013-04-05 00:52:00
8:52 PM,39.9,21.9,49,30.18,-9999.0,East,10.4,-,N/A,,Unknown,80,2013-04-05 01:52:00
9:52 PM,37.9,24.1,57,30.19,-9999.0,ENE,11.5,-,N/A,,Unknown,70,2013-04-05 02:52:00
10:52 PM,36.0,25.0,64,30.18,-9999.0,East,13.8,-,N/A,,Unknown,80,2013-04-05 03:52:00
11:52 PM,34.0,25.0,70,30.18,-9999.0,East,11.5,-,N/A,,Unknown,90,2013-04-05 04:52:00